Regional Weather Roundup
Issued by NWS Binghamton, NY

Home | Current Version | Previous Version | Text Only | Print | Product List | Glossary On
Versions: 1 2 3 4 5 6 7 8 9 10 11 12 13 14 15 16 17 18 19 20 21 22 23 24 25 26 27 28
000
ASUS41 KBGM 010210
RWRBGM

REGIONAL WEATHER ROUNDUP
NATIONAL WEATHER SERVICE BINGHAMTON NY
1000 PM EDT FRI SEP 30 2016

Note: "fair" indicates few or no clouds below 12,000 feet with no
significant weather and/or obstructions to visibility.

* = Station(s) that does not report precipitation, such as rain,
snow, etc, also no thunder or fog.

NYZ009-015>018-022>025-036-037-044>046-055>057-062-010300
...Central New York...

CITY           SKY/WX    TMP DP  RH WIND       PRES   REMARKS
Binghamton     CLOUDY    49  49 100 E7        30.29S FOG
Cortland       CLOUDY    50  50 100 E7        30.31S
Dansville      CLOUDY    56  50  80 SE9       30.27S
Elmira         CLOUDY    53  49  86 NE6       30.28S
Ithaca         NOT AVBL
Hamilton       CLOUDY    52  48  87 E7        30.32F
Hornell        CLOUDY    54  48  82 SE6       30.30S
Monticello     CLOUDY    48  48 100 E13G18    30.31S
Norwich        CLOUDY    52  48  87 CALM      30.32F
Oneonta        CLOUDY    48  48 100 E5        30.31F
Penn Yan       CLOUDY    53  50  89 CALM      30.30F
Rome           LGT RAIN  52  51  97 E7        30.35R
Sidney         CLOUDY    55  55 100 CALM      30.30F
Syracuse       DRIZZLE   52  49  89 E8        30.32S FOG
$$

PAZ038>040-043-044-047-048-072-010300
...Northeast Pennsylvania...

CITY           SKY/WX    TMP DP  RH WIND       PRES   REMARKS
Hazleton       CLOUDY    54  52  94 E7        30.27
Scranton       CLOUDY    55  51  86 NE9       30.26F
$$
&&
KEY
WCI = Wind Chill Index
VSB = Visibility
HX  = Heat Index
$$




USA.gov is the U.S. government's official web portal to all federal, state and local government web resources and services.